Weather History for KANE - October, 2013

Change the Weather History Date:

Friday, October 18, 2013

  Actual Average Record
Temperature  
Mean Temperature 45 °F -  
Max Temperature 53 °F 54 °F 77 °F (2005)
Min Temperature 37 °F 37 °F 30 °F (1999)
Degree Days  
Heating Degree Days 20    
Moisture  
Dew Point 37 °F    
Average Humidity 81    
Maximum Humidity 100    
Minimum Humidity 38    
Precipitation  
Precipitation 0.19 in - - ()
Sea Level Pressure  
Sea Level Pressure 29.89 in    
Wind  
Wind Speed 10 mph (WNW)    
Max Wind Speed 18 mph    
Max Gust Speed 22 mph    
Visibility 10 miles    
Events Rain    
Averages and records for this station are not official NWS values.
T = Trace of Precipitation, MM = Missing Value Source: NWS Daily Summary

Daily Weather History Graph

Daily Weather History Graph

Search for Another Location

Airport or City:

Trip Planner

Search our weather history database for the weather conditions in past years. The results will help you decide how hot, cold, wet, or windy it might be!

Date:

Astronomy

Oct. 18, 2013 Rise Set
Actual Time 7:33 AM CDT 6:22 PM CDT
Civil Twilight 7:03 AM CDT 6:51 PM CDT
Nautical Twilight 6:28 AM CDT 7:26 PM CDT
Astronomical Twilight 5:54 AM CDT 8:00 PM CDT
Moon 6:11 PM CDT (10/18) 7:09 AM CDT (10/18)
Length of Visible Light 11h 48m
Length of Day
10h 49m
Full, 100% of the Moon is Illuminated
Oct 18
Full
Oct 18
Full
Oct 26
Last Quarter
Nov 3
New
Nov 9
First Quarter

Hourly Weather History & Observations

Time (CDT) Temp. Windchill Dew Point Humidity Pressure Visibility Wind Dir Wind Speed Gust Speed Precip Events Conditions
12:14 AM 44.6 °F 38.1 °F 42.8 °F 93% 29.84 in 10.0 mi NW 13.8 mph 21.9 mph 0.02 in Rain Rain
12:34 AM 44.6 °F 37.2 °F 42.8 °F 93% 29.85 in 10.0 mi NW 17.3 mph 20.7 mph 0.05 in Rain Rain
12:54 AM 42.8 °F 35.8 °F 41.0 °F 93% 29.85 in 10.0 mi NW 13.8 mph - 0.08 in Rain Light Rain
1:13 AM 42.8 °F 34.5 °F 41.0 °F 93% 29.85 in 10.0 mi NW 18.4 mph 21.9 mph 0.02 in Rain Light Rain
1:34 AM 42.8 °F 35.4 °F 39.2 °F 87% 29.86 in 10.0 mi NNW 15.0 mph - 0.04 in Rain Rain
1:54 AM 42.8 °F 36.2 °F 39.2 °F 87% 29.87 in 10.0 mi NW 12.7 mph 19.6 mph 0.06 in Rain Light Rain
2:14 AM 42.8 °F 36.2 °F 39.2 °F 87% 29.87 in 10.0 mi NNW 12.7 mph 18.4 mph 0.02 in Rain Light Rain
2:34 AM 42.8 °F 37.5 °F 39.2 °F 87% 29.87 in 10.0 mi NW 9.2 mph - 0.03 in Rain Light Rain
2:54 AM 42.8 °F 38.0 °F 39.2 °F 87% 29.88 in 10.0 mi NW 8.1 mph - 0.04 in Rain Rain
3:14 AM 42.8 °F 37.0 °F 41.0 °F 93% 29.88 in 10.0 mi NW 10.4 mph - N/A Rain Rain
3:34 AM 42.8 °F 37.0 °F 41.0 °F 93% 29.87 in 10.0 mi NW 10.4 mph - 0.01 in Rain Rain
3:54 AM 42.8 °F 37.0 °F 41.0 °F 93% 29.88 in 10.0 mi NNW 10.4 mph - 0.01 in   Light Drizzle
4:14 AM 42.8 °F 37.5 °F 39.2 °F 87% 29.88 in 10.0 mi WNW 9.2 mph - N/A   Light Drizzle
4:34 AM 41.0 °F 35.2 °F 39.2 °F 93% 29.88 in 10.0 mi NW 9.2 mph - N/A   Overcast
4:54 AM 39.2 °F 35.0 °F 39.2 °F 100% 29.89 in 10.0 mi NW 5.8 mph - N/A   Mostly Cloudy
5:14 AM 41.0 °F 39.0 °F 39.2 °F 93% 29.89 in 10.0 mi WNW 3.5 mph - N/A   Overcast
5:34 AM 39.2 °F 33.6 °F 39.2 °F 100% 29.90 in 10.0 mi West 8.1 mph - N/A   Overcast
5:54 AM 41.0 °F 35.8 °F 41.0 °F 100% 29.90 in 10.0 mi WNW 8.1 mph - N/A   Mostly Cloudy
6:14 AM 41.0 °F 35.8 °F 39.2 °F 93% 29.90 in 10.0 mi WNW 8.1 mph - N/A   Scattered Clouds
6:34 AM 39.2 °F 32.5 °F 39.2 °F 100% 29.91 in 10.0 mi WNW 10.4 mph - N/A   Scattered Clouds
6:45 AM 39.2 °F 33.6 °F 39.2 °F 100% 29.91 in 10.0 mi West 8.1 mph - N/A   Mostly Cloudy
6:54 AM 39.2 °F 33.6 °F 39.2 °F 100% 29.92 in 10.0 mi West 8.1 mph - N/A   Mostly Cloudy
7:45 AM 37.4 °F 31.4 °F 37.4 °F 100% 29.94 in 10.0 mi West 8.1 mph - N/A   Scattered Clouds
8:45 AM 39.2 °F 33.0 °F 37.4 °F 93% 29.96 in 10.0 mi West 9.2 mph - N/A   Partly Cloudy
9:45 AM 42.8 °F 37.5 °F 39.2 °F 87% 29.97 in 10.0 mi West 9.2 mph - N/A   Partly Cloudy
10:45 AM 46.4 °F 41.9 °F 39.2 °F 76% 29.96 in 10.0 mi West 9.2 mph - N/A   Partly Cloudy
11:45 AM 50.0 °F - 35.6 °F 58% 29.96 in 10.0 mi West 9.2 mph - N/A   Partly Cloudy
12:45 PM 51.8 °F - 28.4 °F 41% 29.95 in 10.0 mi WNW 8.1 mph - N/A   Scattered Clouds
1:55 PM 53.6 °F - 28.4 °F 38% 29.93 in 10.0 mi West 8.1 mph - N/A   Scattered Clouds
2:55 PM 51.8 °F - 30.2 °F 44% 29.90 in 10.0 mi WNW 9.2 mph - N/A   Scattered Clouds
3:50 PM 51.8 °F - 30.2 °F 44% 29.90 in 10.0 mi West 8.1 mph - N/A   Mostly Cloudy
4:47 PM 51.8 °F - 33.8 °F 50% 29.90 in 10.0 mi WSW 8.1 mph - N/A   Mostly Cloudy
6:55 PM 48.2 °F - 30.2 °F 50% 29.89 in 10.0 mi WSW 3.5 mph - N/A   Mostly Cloudy
7:50 PM 42.8 °F 41.1 °F 33.8 °F 70% 29.88 in 10.0 mi South 3.5 mph - N/A   Scattered Clouds
8:55 PM 41.0 °F 38.0 °F 35.6 °F 81% 29.87 in 10.0 mi South 4.6 mph - N/A   Mostly Cloudy
9:14 PM 44.6 °F 43.1 °F 35.6 °F 71% 29.86 in 10.0 mi SSW 3.5 mph - N/A   Overcast
9:33 PM 42.8 °F 41.1 °F 35.6 °F 76% 29.86 in 10.0 mi SSW 3.5 mph - N/A   Overcast
9:54 PM 42.8 °F 41.1 °F 35.6 °F 76% 29.86 in 10.0 mi SSW 3.5 mph - N/A   Overcast
10:14 PM 42.8 °F - 35.6 °F 76% 29.85 in 10.0 mi Calm Calm - N/A   Overcast
10:34 PM 42.8 °F - 37.4 °F 81% 29.85 in 10.0 mi Calm Calm - N/A   Overcast
10:54 PM 42.8 °F - 37.4 °F 81% 29.84 in 10.0 mi Calm Calm - N/A   Overcast
11:14 PM 42.8 °F 39.3 °F 37.4 °F 81% 29.84 in 10.0 mi SW 5.8 mph - N/A   Overcast
11:34 PM 44.6 °F 38.8 °F 35.6 °F 71% 29.84 in 10.0 mi WSW 11.5 mph - N/A   Overcast
11:54 PM 44.6 °F 39.7 °F 37.4 °F 76% 29.84 in 10.0 mi West 9.2 mph 16.1 mph N/A   Overcast